Helicity
20 29 41 88 88 94 85 83 105 73 76 78 91 116 114 153 159 197 61 61 83 45 32 27 31 50 62 69 69 72 75 68 68 60 34 38 38 48 53 26 53 42 28 20 30 74 86 74 67
21 29 66 73 86 97 61 68 51 52 91 101 104 107 104 124 121 90 73 76 45 44 25 10 23 51 58 70 77 69 62 73 75 76 51 28 27 43 66 90 86 54 16 20 31 54 88 63 63
35 47 55 70 82 70 60 40 51 84 94 121 118 115 115 111 120 105 85 81 39 -3 2 -13 13 18 42 59 75 70 56 53 48 44 46 42 19 33 80 92 73 55 30 29 47 52 72 21 30
39 59 74 73 63 38 42 44 72 94 99 120 123 111 113 83 87 99 104 68 59 28 11 -3 3 12 26 41 56 54 57 58 49 44 49 51 50 37 88 75 59 52 61 15 47 59 37 25 31
69 79 83 73 56 58 43 38 86 96 108 101 122 108 90 86 88 91 96 90 78 60 51 28 13 6 20 33 42 50 43 62 50 59 68 66 69 86 89 81 51 54 57 62 59 57 21 22 42
87 95 112 86 71 59 54 67 103 92 97 105 101 96 77 87 91 103 109 103 94 86 74 59 40 36 30 24 37 43 52 64 71 79 63 80 87 109 89 86 42 45 49 43 37 41 42 56 54
120 147 119 114 92 88 91 109 136 124 125 95 118 94 93 92 73 145 202 190 148 117 94 77 63 47 50 39 34 46 48 68 66 65 78 87 111 120 86 75 54 35 46 40 33 39 49 65 82
141 153 148 121 127 92 86 131 130 144 101 136 107 81 76 81 100 142 179 188 180 167 134 106 93 87 80 57 57 48 48 62 72 74 110 118 106 115 93 64 42 37 35 23 14 24 57 86 84
150 202 175 162 186 125 124 132 136 150 145 134 123 114 82 81 97 136 153 160 141 120 101 104 86 72 77 83 61 57 71 82 84 115 147 131 88 81 75 57 41 52 32 20 21 47 84 112 105
196 234 153 141 154 146 146 168 157 151 144 129 103 68 99 126 130 134 123 102 110 89 73 69 72 60 68 89 84 78 72 81 90 130 171 140 108 102 83 65 56 54 25 48 61 91 121 156 132
202 239 145 137 137 166 177 170 177 162 147 111 135 113 89 85 80 97 89 77 48 60 70 66 73 75 68 75 102 119 128 143 149 153 196 181 137 123 107 78 62 80 50 72 131 170 136 137 120
232 144 164 155 169 184 187 189 168 183 142 110 40 107 101 80 77 76 70 52 77 77 72 71 64 81 79 91 95 114 132 156 171 176 189 217 199 150 122 92 75 84 101 108 131 152 161 135 99
212 170 157 144 144 136 141 151 150 119 82 87 98 115 85 83 73 59 50 36 43 49 51 45 63 65 71 87 97 110 127 156 170 205 201 240 223 184 141 109 101 81 139 151 137 144 140 161 87
229 138 120 135 156 165 163 133 169 153 48 49 78 91 68 86 71 85 59 41 58 56 50 56 78 76 84 90 92 106 132 139 173 219 234 213 238 233 198 131 119 106 117 187 159 163 146 145 117
176 136 113 159 176 193 179 156 223 126 183 91 118 117 118 97 101 72 73 50 41 55 70 70 76 94 113 99 105 113 116 145 180 192 197 209 220 244 204 173 142 140 141 195 241 207 189 189 167
168 164 274 161 130 124 154 162 167 133 77 95 151 183 147 111 83 64 55 60 54 59 65 76 89 103 110 133 146 132 119 139 170 187 203 184 206 225 241 229 192 181 196 218 265 255 210 199 179
213 266 261 173 94 166 187 151 152 172 250 188 196 173 127 98 70 73 90 89 83 75 76 78 101 114 116 133 154 140 134 139 163 173 189 180 177 238 284 254 238 260 262 235 289 291 262 209 205
210 221 192 198 158 200 197 118 60 106 146 129 149 137 115 105 111 149 152 132 132 112 88 92 115 156 168 167 170 175 192 193 175 166 165 157 186 237 295 278 269 334 308 305 302 315 291 240 232
186 191 165 125 136 156 92 85 48 45 85 49 17 69 97 137 209 216 220 177 168 165 136 149 158 216 226 203 173 177 177 186 191 184 135 131 170 175 250 279 225 337 337 371 313 328 359 357 311
191 166 156 140 66 84 151 149 113 100 96 45 54 128 242 347 375 326 308 248 180 166 162 173 199 213 209 181 162 181 170 172 168 170 175 164 192 214 216 250 271 239 399 444 311 285 382 390 335
160 193 169 191 138 132 104 96 59 125 189 227 240 202 301 376 397 370 354 305 269 249 216 166 167 180 183 185 181 177 199 182 201 191 177 184 186 207 221 240 276 275 403 501 378 235 275 401 329
208 180 142 138 158 177 85 131 110 133 186 216 216 269 274 309 312 303 292 295 282 261 220 216 148 143 146 143 129 121 127 114 119 137 152 163 156 160 183 220 217 257 365 382 330 288 239 315 342
202 136 128 124 157 180 123 168 117 168 232 262 285 302 353 340 291 302 265 263 266 271 243 211 194 151 124 108 102 114 112 109 110 130 137 168 181 170 175 193 201 199 318 334 344 357 222 285 293
127 116 129 172 174 169 128 185 165 183 207 304 341 370 381 389 367 344 323 312 329 309 283 246 208 157 110 72 65 67 67 84 114 115 125 139 158 164 160 190 204 214 266 335 356 356 409 289 285
197 172 154 167 159 173 135 147 200 279 342 351 399 479 526 546 473 490 480 478 445 392 311 269 255 237 235 132 61 61 66 76 88 119 133 122 137 153 124 143 180 220 254 326 338 343 318 431 342
91 96 141 155 140 69 108 64 201 277 343 325 366 443 527 586 577 549 496 483 475 394 318 259 245 249 258 210 182 57 52 87 88 96 116 128 123 118 101 109 116 139 175 248 314 358 370 355 385
136 135 125 76 21 22 -14 83 92 197 273 355 431 458 532 619 647 628 506 390 349 352 354 323 272 218 202 233 204 144 101 58 89 86 127 150 148 151 140 132 116 114 186 206 292 343 327 269 336
37 4 51 97 96 83 84 82 166 192 276 301 370 487 449 439 440 553 598 471 385 284 264 224 227 238 191 177 194 164 141 107 66 91 108 127 152 156 150 159 142 118 176 185 174 314 293 281 251
36 50 111 106 161 119 110 121 193 309 309 336 349 369 309 430 405 332 332 399 400 285 185 179 199 217 216 189 186 177 167 141 148 73 95 107 118 153 163 167 173 192 162 222 245 206 355 279 323
171 237 265 214 213 199 124 115 146 158 132 191 211 238 161 135 189 197 178 174 251 379 322 192 177 165 194 183 161 151 155 137 137 111 88 117 133 127 130 147 183 253 265 302 288 290 332 287 323
Wind_Speed
35 31 27 27 30 36 40 39 36 32 33 32 34 31 35 36 33 39 28 19 25 10 1 4 5 4 3 3 4 3 7 6 10 7 5 5 5 6 6 8 9 7 13 22 25 22 18 17 18
32 28 29 30 38 43 44 37 36 37 39 41 33 32 35 37 33 30 25 29 25 12 7 13 9 7 7 4 2 1 2 3 3 6 4 8 9 4 6 4 5 9 12 15 21 24 17 17 17
29 29 31 34 39 47 46 39 38 37 38 36 35 34 34 33 29 27 30 33 23 11 8 9 13 11 10 8 6 4 3 2 2 2 4 4 8 4 4 8 10 10 13 14 12 19 17 24 22
29 31 35 40 44 45 43 39 37 39 37 37 37 40 36 32 29 31 35 24 18 13 12 12 13 15 14 13 11 10 9 6 6 3 3 4 7 12 8 8 13 12 11 10 10 14 19 24 21
31 32 39 44 46 45 42 42 43 41 40 39 40 44 41 35 34 32 29 24 20 20 22 21 19 19 19 17 16 15 16 12 10 8 5 6 9 9 10 11 14 13 13 11 10 8 19 23 16
30 31 39 45 45 44 44 35 38 42 44 44 45 47 46 37 34 32 28 27 26 24 28 29 29 28 28 23 20 19 18 16 14 12 10 6 8 9 13 14 17 15 14 12 6 6 10 9 13
25 31 42 46 48 47 41 29 34 36 41 46 42 51 48 45 34 32 30 29 30 33 33 34 34 34 32 30 28 23 22 19 18 17 12 8 8 11 15 16 17 17 16 12 7 1 3 4 10
24 29 40 36 47 50 34 30 36 34 41 39 37 51 51 45 30 32 36 37 37 37 38 40 38 37 39 37 32 29 26 22 22 18 17 17 16 15 14 16 19 19 17 13 10 2 2 2 5
24 34 43 44 43 45 30 32 32 34 42 42 40 46 46 44 34 38 43 44 43 44 43 41 43 41 37 38 39 34 26 23 25 23 19 20 25 20 14 19 18 18 17 14 13 11 12 2 1
25 35 39 30 28 40 31 28 34 40 42 48 55 57 54 50 45 44 49 53 52 53 52 48 44 42 41 39 39 42 38 32 27 28 25 25 24 24 21 18 17 18 21 13 16 12 9 8 9
32 36 40 38 33 36 36 34 34 46 57 52 57 64 54 51 55 52 58 65 72 70 67 61 52 45 44 43 41 41 39 37 34 31 27 23 23 24 24 23 20 21 23 21 21 15 16 13 14
47 44 45 48 46 43 45 46 47 45 52 52 51 55 52 54 53 53 59 69 72 66 58 53 54 52 47 46 45 40 39 36 34 35 30 27 25 25 29 27 26 24 27 24 25 24 21 19 15
50 55 52 51 52 53 55 57 61 57 56 59 65 65 64 60 58 61 63 64 61 62 59 57 52 50 48 43 42 41 39 37 35 34 35 33 30 28 30 32 31 28 27 28 29 29 26 22 20
55 62 63 61 61 61 67 70 62 69 58 65 68 66 62 62 63 60 58 60 58 59 59 53 51 48 46 44 41 41 40 38 36 36 36 37 38 33 31 35 37 33 32 30 32 32 30 28 26
60 77 78 69 68 67 60 78 72 70 57 54 55 57 53 51 53 57 63 68 67 61 56 52 47 46 44 44 42 40 40 39 37 37 37 37 39 38 35 37 41 39 36 32 32 33 34 32 30
69 71 83 66 61 60 50 83 64 67 53 56 59 56 57 60 60 67 65 63 63 60 56 52 46 42 42 43 43 42 40 38 38 38 39 40 41 43 42 41 44 42 40 37 36 34 37 36 34
64 80 82 85 59 59 52 73 60 57 55 60 58 67 70 69 69 63 60 59 57 55 54 51 47 44 41 43 43 42 39 38 37 38 39 41 42 47 50 48 46 45 44 44 42 41 39 41 38
80 84 82 83 64 62 69 74 82 86 78 78 80 73 73 67 57 56 57 55 51 49 50 49 46 42 36 36 39 42 42 42 39 37 38 40 45 45 53 57 53 51 48 49 48 44 46 43 42
73 79 85 78 69 73 73 79 95 79 82 86 80 76 69 59 51 50 51 50 48 45 43 42 39 36 34 36 39 44 47 45 42 41 41 42 47 49 51 56 57 58 58 54 52 49 50 50 43
71 79 84 78 64 48 62 79 89 81 66 64 59 53 44 44 45 46 44 43 43 42 41 37 33 33 36 39 42 45 44 45 44 43 44 43 42 45 51 55 54 59 67 60 57 60 57 57 52
72 74 76 71 68 63 67 77 67 45 38 38 38 35 34 36 40 41 39 40 42 42 42 37 35 36 36 38 39 42 39 41 44 45 45 44 43 43 46 53 56 53 57 60 60 65 67 65 63
87 63 60 61 60 62 48 73 61 42 36 34 34 33 33 32 34 35 35 36 40 43 42 40 37 37 38 39 43 45 47 46 47 47 46 43 40 44 46 50 53 53 58 64 52 61 71 69 70
76 61 59 57 55 56 55 62 64 42 46 41 36 35 34 33 31 33 33 33 35 39 41 42 42 40 40 41 44 46 49 49 47 45 45 47 46 45 47 51 55 61 62 63 66 59 65 76 75
55 57 54 47 44 51 46 49 60 59 47 36 30 31 33 33 32 31 32 31 33 37 38 40 41 42 44 45 46 48 51 51 51 49 48 47 49 50 53 59 64 68 70 71 69 69 61 76 81
55 59 53 52 45 51 50 47 57 37 27 24 25 28 30 31 31 31 33 33 34 36 37 38 38 38 40 46 49 51 53 52 53 49 47 47 48 48 47 54 62 70 77 74 73 73 81 71 80
58 42 45 57 46 50 40 42 26 14 16 16 19 22 25 29 30 29 30 31 31 33 36 37 37 39 42 44 48 52 52 52 52 50 49 47 44 44 46 47 55 63 73 80 80 79 79 83 76
50 46 56 51 56 54 44 35 32 18 20 22 22 24 26 27 28 30 29 29 31 35 37 40 40 40 42 44 48 51 53 53 54 49 48 45 45 49 50 50 52 56 69 74 76 83 83 84 78
59 61 50 42 48 46 41 40 43 30 29 29 27 29 31 31 32 32 32 33 35 38 38 42 43 43 46 47 49 52 54 58 58 46 45 40 47 51 53 54 58 61 56 69 76 81 84 84 86
66 52 50 50 49 50 50 39 36 32 31 30 35 36 38 39 38 38 39 39 40 41 41 45 46 49 51 52 53 55 57 58 59 43 41 35 47 57 63 63 64 57 54 52 62 74 80 85 79
27 40 46 43 54 53 53 48 35 29 33 37 38 39 39 38 40 43 46 48 46 48 50 50 51 52 53 55 56 57 58 58 57 54 53 49 44 51 66 76 68 59 57 62 61 63 70 78 82
Wind_Direction
339 347 352 340 317 313 304 303 306 308 305 301 295 290 283 282 287 286 305 307 305 334 355 237 238 223 149 94 67 31 69 71 83 67 303 320 11 23 24 59 62 42 26 58 72 57 28 5 13
346 350 343 329 311 304 305 306 302 296 295 291 295 290 289 282 289 298 300 295 290 309 309 267 247 233 240 234 224 325 348 67 55 64 31 295 294 358 47 32 328 313 329 28 68 83 27 5 34
0 349 334 324 313 303 303 306 301 302 296 295 294 297 294 294 293 294 294 289 293 299 313 281 263 249 244 250 250 235 250 266 76 31 52 332 286 297 19 311 301 318 324 332 15 65 46 72 66
4 351 340 320 310 309 309 308 305 300 299 298 296 290 296 295 295 290 290 299 297 294 298 291 274 264 259 256 257 255 254 248 267 284 319 325 293 283 308 307 292 309 328 355 353 56 72 82 72
4 357 329 321 315 313 309 304 303 298 296 295 294 288 291 293 291 291 293 294 292 285 285 285 280 275 269 261 257 255 256 249 254 260 291 295 299 288 296 299 288 298 308 314 321 39 89 93 69
13 8 340 326 322 320 314 308 304 296 293 293 292 289 289 296 289 291 292 289 286 283 282 281 279 276 271 268 261 257 254 252 245 255 271 284 290 302 295 291 283 289 297 297 330 56 85 62 70
25 5 341 332 327 324 321 321 305 300 295 290 296 288 291 288 285 285 289 289 286 283 282 279 279 275 273 267 262 258 255 251 247 250 258 270 287 297 297 286 280 281 285 285 290 351 75 34 67
31 9 345 343 332 326 336 326 317 304 296 302 299 291 290 292 282 281 284 285 284 284 281 277 277 275 272 269 263 259 256 251 246 244 251 265 280 286 290 286 279 277 275 272 264 217 296 46 61
19 351 336 335 332 332 340 327 322 317 301 298 297 292 295 297 286 279 279 279 279 278 278 279 276 273 272 270 267 261 253 246 244 244 247 260 273 275 277 280 277 274 270 264 254 260 265 261 9
353 339 337 345 343 335 338 325 319 312 302 296 291 290 290 291 284 275 272 272 273 274 274 276 277 274 271 270 268 264 260 254 247 248 250 262 267 266 272 276 273 270 263 249 257 259 249 251 258
340 328 333 334 329 332 326 320 316 306 297 294 291 290 293 286 278 276 272 269 267 271 272 272 273 274 271 269 267 266 261 257 252 248 250 255 262 264 266 270 269 266 260 253 255 251 250 246 258
318 319 319 326 330 325 317 318 310 296 293 300 295 293 292 286 282 278 276 273 272 274 274 273 270 269 270 268 266 264 261 256 249 247 246 249 255 261 261 262 265 261 258 253 251 251 243 249 250
315 317 319 319 318 314 312 305 303 291 296 295 291 287 283 282 281 279 278 278 278 275 273 271 270 268 267 268 267 264 261 256 249 244 246 247 253 255 258 257 259 258 257 250 250 248 244 242 243
322 316 314 314 311 308 304 300 299 299 298 290 288 283 278 277 277 280 280 279 279 277 274 272 267 267 265 265 266 266 263 259 253 248 243 246 252 253 252 255 255 255 255 249 246 245 242 240 242
320 314 312 310 309 305 304 297 290 295 293 285 284 286 282 277 279 281 283 279 278 277 277 273 270 265 263 263 266 268 265 260 255 251 247 245 251 248 250 252 253 252 253 248 245 245 242 240 243
317 315 312 321 319 315 308 297 302 303 291 279 276 281 282 278 280 283 285 283 280 276 274 273 270 266 262 261 264 267 267 263 259 255 252 248 250 251 249 249 249 250 249 247 241 237 239 238 239
319 312 312 316 319 315 304 302 306 303 301 284 277 280 281 280 282 283 285 286 283 279 276 273 268 264 263 263 265 267 266 265 263 260 257 252 252 253 253 250 247 245 245 245 240 238 234 237 238
315 312 311 311 318 314 306 297 294 289 291 283 279 279 280 280 283 286 285 286 287 285 280 275 271 263 262 265 267 268 267 268 267 263 261 255 257 253 254 255 250 244 242 242 241 236 237 234 235
313 311 309 309 311 306 296 296 290 294 290 282 280 280 280 278 284 289 288 287 287 290 287 281 270 261 259 263 266 267 266 267 268 265 264 261 259 256 251 254 255 247 245 239 237 237 232 234 230
312 311 310 313 318 309 307 300 294 295 293 289 287 286 285 281 286 291 293 291 291 289 289 285 276 265 265 269 271 274 270 271 271 269 269 266 261 257 256 252 254 249 247 241 239 237 235 238 228
312 312 312 309 313 307 305 300 299 309 310 305 301 298 296 289 288 291 293 293 291 290 289 288 281 275 273 273 274 276 276 277 273 272 271 268 264 260 258 255 252 248 245 243 236 240 236 237 232
312 314 310 310 313 307 306 299 293 296 303 310 306 304 303 300 298 300 301 297 294 291 291 289 285 282 278 276 274 273 273 272 273 272 272 271 268 265 262 258 251 245 245 241 238 238 238 238 232
313 315 309 307 304 303 299 297 292 288 285 291 298 301 302 305 302 303 305 305 304 299 294 290 286 283 282 280 278 275 274 275 278 276 273 271 271 270 264 260 256 251 249 245 239 238 241 239 236
321 322 317 313 307 296 293 285 289 281 281 287 301 306 304 305 305 307 308 310 312 307 303 298 294 287 285 282 280 278 277 277 277 276 275 275 274 271 267 264 260 256 252 247 245 244 235 239 238
333 329 322 317 312 306 309 291 287 297 294 294 301 303 307 311 307 306 308 309 311 308 308 306 303 300 300 289 282 281 281 280 277 277 276 277 276 273 271 267 262 257 253 251 248 244 242 236 236
323 321 316 313 316 317 316 306 309 346 336 326 319 314 312 309 312 312 314 316 313 313 314 314 312 306 305 301 297 287 286 285 282 278 278 279 277 275 273 270 267 262 257 252 249 247 244 239 234
324 314 313 309 303 302 302 309 301 310 303 306 311 308 311 308 314 313 314 316 313 313 315 318 316 316 315 310 305 298 296 288 285 284 280 280 277 277 274 272 268 266 259 254 250 246 244 241 235
325 315 309 304 304 297 293 291 296 281 282 290 295 302 304 300 306 310 311 311 312 312 313 317 318 319 319 315 311 305 302 297 287 290 284 280 278 277 274 272 270 265 263 254 250 246 242 240 237
312 314 305 297 293 288 290 293 302 298 292 294 296 304 297 297 299 302 303 304 309 310 310 317 320 318 316 317 313 309 307 305 300 293 291 288 283 278 272 269 270 268 258 248 245 246 240 238 234
329 320 320 301 289 287 282 277 296 314 307 303 302 304 303 305 301 302 295 297 303 306 310 312 312 317 316 315 314 313 310 311 305 303 299 291 291 286 275 266 266 268 258 251 244 241 238 235 235